Showing default

EUTE 7C, 44334

Orbit data source: Space-Track

EUTE 7C, 44334 is a payload satellite owned by EutelsatSA (FR) in GEO that was launched on Thu, 20 Jun 2019 UTC via an ARIANE 5ECA launch vehicle from the French Guiana (FRGUI). Payload-class satellites include a variety of spacecraft equipped with specific instruments for various scientific and technological missions. These include communications satellites like Starlink; space stations such as the ISS; scientific satellites like the Hubble; Earth observation satellites from companies like Planet Labs, Umbra, and HawkEye 360; GPS; miniature CubeSats for education and research; and military/defense satellites.

Not visible in the next 10 days
Identifier
44334, 2019-034B
Orbit
GEO
Country
Flag of FRFR / EUTE
Related business
Manufacturer
Maxar Space Sol
Mission
Operational Commercial Communications
Bus & Motor
LS-1300, R-4D
Mass
3,400 kg wet, ~2,200 kg dry
Launch date (UTC)
2019-06-20 (7 years ago)
Launch vehicle
ARIANE 5ECA
Launch site
French Guiana (FRGUI)
Object type
Payload
Rocket body
Debris
Shape & HBR
Box + 2 Pan, 13.1 m
Radar Cross Section
107.198 m², Large (>1 m²)

Expand to show TLE details & history
Last TLE update: 2 days ago

TLE from 2 days ago
0 EUTE 7C
1 44334U 19034B   26171.03691044  .00000043  00000-0  00000-0 0  9996
2 44334   0.0727 176.6467 0003148 255.4742 216.4246  1.00270984  6864
Epoch: 2026-06-20T00:53Z
TLE epoch observation values (Epoch: 2026-06-20T00:53:09.062Z)
Latitude
0.0478°
Longitude
6.99167°
Altitude
35,797.038 km
Speed
3.074 km/s
True Right ascension
19h 14m 08s
True Declination
0° 02' 52"
Sunlit
Object was in daylight at epoch
Visualization orbit readout
Latitude
Unknown
Longitude
Unknown
Altitude
Unknown
Speed
Unknown
Apparent Right ascension
Unknown
Apparent Declination
Unknown
Sunlit
N/A
Visualization observer readout
Local Sidereal Time
21:24:58
Azimuth
Unknown
Elevation
Unknown
Doppler factor
Unknown
Orbital elements
Apogee altitude
35,801.164 km
Perigee altitude
35,774.616 km
Semi-major axis
42,166.027 km
Eccentricity
0.00031
Inclination
0.0727°
RAAN
176.6467°
Arg. of periapsis
255.4742°
True anomaly
216.40319°
Mean anomaly
216.4246°
Eccentric anomaly
216.41389°
Mean motion
0.25067 °/min
Orbital period
1,436.16 mins
BSTAR
0
Loading maneuver chart data...
Computing Atmospheric mass density...
Loading historical data...
Loading historical data...
Loading historical data...
Loading historical data...
Loading historical data...
Loading historical data...
Loading historical data...
Other satellites on launch #34 in the year 2019 (2019-06-20 UTC)

Documentation

Showing up to 5 results
|